Location: Borgo
(42.3939°N, 9.2791°E)
Time: 17:57:30
(UTC+00:00)

Cosmos 44 - Visible Passes

Search period start: 14 May 2021 00:00
Search period end: 24 May 2021 00:00
Orbit: 571 x 791 km, 65.1° (Epoch: 13 May)

Date Brightness Start Highest point End Pass type
(mag) Time Alt. Az. Time Alt. Az. Time Alt. Az.
14 May 4.8 20:15:45 10° NNW 20:20:27 29° NE 20:23:31 17° E visible
14 May 3.9 21:56:47 10° NW 22:01:55 49° WSW 22:01:55 49° WSW visible
15 May 5.7 19:12:31 10° N 19:15:43 16° NNE 19:18:52 10° ENE visible
15 May 3.6 20:52:37 10° NNW 20:58:02 68° NE 20:59:42 43° ESE visible
15 May 5.4 22:35:13 10° WNW 22:38:07 17° W 22:38:07 17° W visible
16 May 4.7 19:48:54 10° NNW 19:53:42 31° NE 19:57:31 14° ESE visible
16 May 4.0 21:30:01 10° NW 21:35:09 45° WSW 21:35:57 42° SW visible
17 May 3.5 20:25:49 10° NNW 20:31:14 73° NE 20:33:48 31° SE visible
17 May 5.5 22:08:38 10° WNW 22:11:49 16° WSW 22:12:13 16° WSW visible
18 May 4.6 19:22:03 10° NNW 19:26:57 33° NE 19:31:38 10° ESE visible
18 May 4.3 21:03:17 10° NW 21:08:19 42° WSW 21:10:07 31° SSW visible
19 May 3.5 19:59:00 10° NNW 20:04:26 79° NE 20:08:04 20° SE visible
19 May 5.6 21:42:05 10° WNW 21:44:57 15° WSW 21:46:30 13° SW visible
20 May 4.5 20:36:32 10° NW 20:41:29 38° WSW 20:44:30 20° S visible
21 May 3.5 19:32:13 10° NNW 19:37:38 85° NE 19:42:32 11° SSE visible
21 May 5.8 21:15:37 10° WNW 21:18:04 13° WSW 21:20:28 10° SW visible
22 May 4.7 20:09:48 10° NW 20:14:38 35° WSW 20:19:04 11° S visible
23 May 5.9 20:49:14 10° W 20:51:12 12° WSW 20:53:08 10° SW visible
